Date String (YYYY-MM-DD hh:mm:ss) UTC,Instrument flags,Ambient pressure (hPa),Sample flow (lpm),Bypass flow (lpm),Sample temperature (°C),Ambient temperature (°C),ASC tube jacket temperature (°C),LED temperature (°C),Box temperature (°C),Sample RH (%),Span deviation,Mass concentration (μg/m³),Mass concentration (μg/m³),Mass concentration (μg/m³)
DateTimeUTC,F1_M11,P_M11,Q1_M11,Q2_M11,T1_M11,T2_M11,T3_M11,T4_M11,T5_M11,U1_M11,ZSPAN_M11,X0_M11,X2_M11,X1_M11
2022-03-25 23:00:00,,0827.1,5.01,0.00,28.7,27.9,00.0,37.5,30.5,12.4,-000.3,0022.71,0009.14,0006.82
2022-03-25 23:01:00,,0827.0,5.01,0.00,28.7,27.9,00.0,37.5,30.5,12.4,0000.7,0023.10,0009.25,0006.86
2022-03-25 23:02:00,,0827.1,4.99,0.00,28.7,27.9,00.0,37.5,30.4,12.3,0000.7,0025.09,0009.39,0006.91
2022-03-25 23:03:00,,0827.1,5.00,0.00,28.7,27.9,00.0,37.5,30.4,12.3,-000.3,0024.81,0009.51,0006.97
2022-03-25 23:04:00,,0827.1,5.01,0.00,28.7,27.9,00.0,37.5,30.4,12.4,0000.7,0024.93,0009.52,0007.01
2022-03-25 23:05:00,,0827.2,4.99,0.00,28.7,27.9,00.0,37.5,30.5,12.4,0001.6,0024.24,0009.48,0007.01
2022-03-25 23:06:00,,0827.1,4.99,0.00,28.7,27.9,00.0,37.6,30.5,12.5,0002.7,0024.19,0009.45,0006.97
2022-03-25 23:07:00,,0827.5,5.01,0.00,28.7,27.9,00.0,37.6,30.5,12.4,0003.4,0024.09,0009.41,0006.97
2022-03-25 23:08:00,,0827.7,4.99,0.00,28.7,27.9,00.0,37.6,30.5,12.5,0003.5,0024.08,0009.42,0006.96
2022-03-25 23:09:00,,0827.5,4.99,0.00,28.7,27.9,00.0,37.6,30.5,12.6,0004.3,0024.16,0009.40,0006.95
2022-03-25 23:10:00,,0827.1,5.01,0.00,28.7,27.9,00.0,37.6,30.5,12.4,0003.2,0023.54,0009.34,0006.96
2022-03-25 23:11:00,,0827.0,5.00,0.00,28.7,27.9,00.0,37.6,30.6,12.2,0002.9,0024.09,0009.37,0006.98
2022-03-25 23:12:00,,0827.0,4.99,0.00,28.7,27.9,00.0,37.6,30.6,12.2,0002.7,0023.20,0009.29,0006.98
2022-03-25 23:13:00,,0827.0,5.00,0.00,28.8,28.0,00.0,37.6,30.6,12.1,0002.6,0021.18,0009.19,0006.98
2022-03-25 23:14:00,,0827.1,5.01,0.00,28.8,28.0,00.0,37.6,30.6,12.1,0003.2,0020.32,0009.09,0006.98
2022-03-25 23:15:00,,0827.1,4.99,0.00,28.8,28.0,00.0,37.6,30.6,12.1,0002.1,0020.25,0009.09,0006.99
2022-03-25 23:16:00,,0827.1,4.99,0.00,28.8,28.0,00.0,37.7,30.6,12.1,0001.3,0020.61,0009.12,0007.01
2022-03-25 23:17:00,,0827.1,5.01,0.00,28.8,28.0,00.0,37.7,30.7,12.2,0000.4,0020.79,0009.13,0007.03
2022-03-25 23:18:00,,0827.0,4.98,0.00,28.8,28.0,00.0,37.7,30.7,12.3,0000.7,0020.66,0009.12,0007.03
2022-03-25 23:19:00,,0827.0,4.99,0.00,28.8,28.1,00.0,37.7,30.6,12.2,0000.3,0021.35,0009.18,0007.07
2022-03-25 23:20:00,,0827.0,5.01,0.00,28.8,28.1,00.0,37.7,30.6,12.1,-000.3,0021.43,0009.20,0007.10
2022-03-25 23:21:00,,0827.0,5.01,0.00,28.8,28.0,00.0,37.7,30.6,12.1,-000.2,0022.06,0009.26,0007.13
2022-03-25 23:22:00,,0827.0,4.99,0.00,28.8,28.0,00.0,37.7,30.6,12.0,0000.0,0021.82,0009.24,0007.16
2022-03-25 23:23:00,,0827.0,4.99,0.00,28.8,27.9,00.0,37.7,30.6,12.0,-000.2,0022.07,0009.32,0007.18
2022-03-25 23:24:00,,0827.0,4.99,0.00,28.8,28.0,00.0,37.7,30.6,12.1,-000.7,0023.75,0009.38,0007.21
2022-03-25 23:25:00,,0827.0,5.01,0.00,28.8,28.1,00.0,37.7,30.6,12.0,-000.8,0023.93,0009.42,0007.22
2022-03-25 23:26:00,,0827.0,5.01,0.00,28.8,28.1,00.0,37.8,30.6,12.0,-000.6,0024.09,0009.46,0007.24
2022-03-25 23:27:00,,0826.9,4.99,0.00,28.9,28.1,00.0,37.8,30.6,12.0,-001.1,0024.42,0009.42,0007.25
2022-03-25 23:28:00,,0826.9,4.99,0.00,28.9,28.1,00.0,37.8,30.7,12.1,-000.9,0024.02,0009.44,0007.27
2022-03-25 23:29:00,,0826.9,5.02,0.00,28.9,28.1,00.0,37.8,30.7,12.2,-001.0,0023.89,0009.56,0007.30
2022-03-25 23:30:00,,0827.0,4.99,0.00,28.9,28.1,00.0,37.8,30.7,12.0,-000.2,0023.16,0009.61,0007.32
2022-03-25 23:31:00,,0827.0,4.99,0.00,28.9,28.1,00.0,37.8,30.7,12.1,-000.2,0022.16,0009.60,0007.33
2022-03-25 23:32:00,,0826.9,5.02,0.00,28.9,28.2,00.0,37.8,30.8,12.1,-000.2,0021.68,0009.65,0007.34
2022-03-25 23:33:00,,0826.9,5.00,0.00,29.0,28.2,00.0,37.8,30.8,12.1,-000.4,0022.10,0009.68,0007.32
2022-03-25 23:34:00,,0827.0,4.99,0.00,29.0,28.2,00.0,37.8,30.8,12.2,-000.1,0023.15,0009.58,0007.29
2022-03-25 23:35:00,,0826.9,5.00,0.00,29.0,28.2,00.0,37.9,30.8,12.2,-000.0,0021.78,0009.50,0007.27
2022-03-25 23:36:00,,0826.9,5.01,0.00,29.0,28.2,00.0,37.9,30.8,12.2,-000.1,0021.83,0009.48,0007.24
2022-03-25 23:37:00,,0827.0,4.98,0.00,29.0,28.3,00.0,37.9,30.8,12.3,0000.5,0022.51,0009.45,0007.21
2022-03-25 23:38:00,,0827.0,4.99,0.00,29.0,28.2,00.0,37.9,30.8,12.2,0001.1,0022.53,0009.48,0007.20
2022-03-25 23:39:00,,0826.9,5.01,0.00,29.0,28.2,00.0,37.9,30.9,12.3,0001.7,0022.43,0009.46,0007.18
2022-03-25 23:40:00,,0826.8,5.00,0.00,29.0,28.3,00.0,37.9,30.9,12.2,0001.9,0022.12,0009.37,0007.17
2022-03-25 23:41:00,,0826.8,4.99,0.00,29.1,28.3,00.0,37.9,30.9,12.0,0001.3,0022.15,0009.33,0007.16
2022-03-25 23:42:00,,0826.9,5.01,0.00,29.1,28.2,00.0,37.9,30.9,12.1,0001.2,0023.04,0009.33,0007.14
2022-03-25 23:43:00,,0826.9,5.01,0.00,29.1,28.2,00.0,38.0,30.8,12.1,0001.3,0023.99,0009.31,0007.12
2022-03-25 23:44:00,,0827.0,4.99,0.00,29.1,28.3,00.0,38.0,30.8,12.2,0001.8,0024.00,0009.27,0007.10
2022-03-25 23:45:00,,0826.9,4.99,0.00,29.1,28.3,00.0,38.0,30.9,12.2,0001.6,0023.15,0009.27,0007.08
2022-03-25 23:46:00,,0826.9,5.00,0.00,29.1,28.3,00.0,38.0,30.9,12.1,0001.7,0024.20,0009.32,0007.04
2022-03-25 23:47:00,,0826.9,5.01,0.00,29.1,28.3,00.0,38.0,30.9,12.1,0001.6,0024.22,0009.30,0007.02
2022-03-25 23:48:00,,0827.0,4.99,0.00,29.1,28.3,00.0,38.0,30.9,12.0,0001.8,0024.28,0009.34,0007.01
2022-03-25 23:49:00,,0826.9,5.01,0.00,29.1,28.3,00.0,38.0,30.9,12.0,0001.9,0024.07,0009.31,0006.99
2022-03-25 23:50:00,,0826.9,5.00,0.00,29.1,28.3,00.0,38.0,30.9,12.1,0001.7,0023.85,0009.25,0006.97
2022-03-25 23:51:00,,0827.0,4.99,0.00,29.1,28.3,00.0,38.0,31.0,11.9,0001.4,0024.19,0009.23,0006.94
2022-03-25 23:52:00,,0826.9,5.02,0.00,29.2,28.3,00.0,38.0,31.0,11.9,0001.8,0024.27,0009.21,0006.92
2022-03-25 23:53:00,,0826.9,5.00,0.00,29.2,28.4,00.0,38.0,31.0,11.8,0002.0,0023.61,0009.14,0006.89
2022-03-25 23:54:00,,0827.0,5.00,0.00,29.2,28.4,00.0,38.1,31.0,11.8,0002.0,0022.98,0009.05,0006.87
2022-03-25 23:55:00,,0827.0,4.99,0.00,29.2,28.3,00.0,38.1,31.0,11.8,0001.4,0022.45,0009.06,0006.84
2022-03-25 23:56:00,,0827.0,5.00,0.00,29.2,28.3,00.0,38.1,31.0,11.8,0001.6,0022.31,0009.09,0006.84
2022-03-25 23:57:00,,0827.0,5.01,0.00,29.2,28.4,00.0,38.1,31.0,11.8,0002.3,0022.54,0009.12,0006.86
2022-03-25 23:58:00,,0827.0,4.99,0.00,29.2,28.4,00.0,38.1,31.0,11.9,0003.2,0023.97,0009.17,0006.88
2022-03-25 23:59:00,,0827.0,5.00,0.00,29.2,28.4,00.0,38.1,31.0,12.0,0003.0,0024.72,0009.14,0006.88
